This is the latest recevied weather packets stored in our database for station/object KO4ZGL-13. If no packets are shown the sender has not sent any weather packets the latest 10 day(s).
| Time | Temp. | Humidity | Pressure | Rain* | Wind** | Luminosity | Snow |
|---|---|---|---|---|---|---|---|
| 1788037551 | 26.67° C | 98% | 1020.3 hPa | 0 mm | - | 58 W/m² | - |
| 1788037246 | 26.67° C | 98% | 1020.4 hPa | 0 mm | - | 67 W/m² | - |
| 1788036945 | 27.22° C | 97% | 1020.3 hPa | 0 mm | - | 46 W/m² | - |
| 1788036643 | 27.22° C | 97% | 1020.3 hPa | 0 mm | - | 64 W/m² | - |
| 1788036337 | 27.22° C | 97% | 1020.2 hPa | 0 mm | - | 80 W/m² | - |
| 1788036032 | 27.22° C | 97% | 1020.3 hPa | 0 mm | - | 79 W/m² | - |
| 1788035732 | 27.22° C | 97% | 1020.2 hPa | 0 mm | - | 101 W/m² | - |
| 1788035427 | 27.22° C | 97% | 1020.5 hPa | 0 mm | - | 81 W/m² | - |
| 1788035122 | 27.22° C | 97% | 1020.3 hPa | 0 mm | - | 85 W/m² | - |
| 1788034819 | 27.22° C | 97% | 1020.2 hPa | 0 mm | - | 130 W/m² | - |
| 1788034515 | 27.22° C | 97% | 1020.3 hPa | 0 mm | - | 149 W/m² | - |
| 1788034211 | 27.22° C | 97% | 1020.2 hPa | 1.27 mm | - | 143 W/m² | - |
| 1788033909 | 27.22° C | 96% | 1020.1 hPa | 1.27 mm | - | 131 W/m² | - |
| 1788033604 | 27.22° C | 96% | 1020.2 hPa | 0 mm | - | 119 W/m² | - |
| 1788033303 | 27.22° C | 96% | 1020.2 hPa | 0 mm | - | 100 W/m² | - |
| 1788032999 | 27.78° C | 95% | 1020.4 hPa | 0 mm | - | 101 W/m² | - |
| 1788032698 | 27.78° C | 95% | 1020.4 hPa | 0 mm | - | 95 W/m² | - |
| 1788032394 | 27.78° C | 95% | 1020.6 hPa | 0 mm | - | 92 W/m² | - |
| 1788032089 | 27.78° C | 95% | 1020.3 hPa | 0 mm | - | 92 W/m² | - |
| 1788031784 | 27.78° C | 94% | 1020.5 hPa | 0 mm | - | 90 W/m² | - |
| 1788031479 | 27.78° C | 94% | 1020.6 hPa | 0 mm | - | 84 W/m² | - |
| 1788031174 | 27.78° C | 94% | 1020.5 hPa | 0 mm | - | 79 W/m² | - |
| 1788030873 | 27.78° C | 94% | 1020.5 hPa | 0 mm | - | 69 W/m² | - |
| 1788030572 | 27.78° C | 93% | 1020.5 hPa | 0 mm | - | 59 W/m² | - |
| 1788030267 | 27.78° C | 92% | 1020.7 hPa | 0 mm | - | 58 W/m² | - |
* Rain latest hour (hover to see other rain measurements)
** Current wind speed in m/s (hover to see current wind gust speed)